Location: Newark
(25.0000°N, 73.5000°E)
Time: 11:33:30
(UTC+00:00)

RS-15 - Pass Details

Date: 25 February 2020
Orbit: 1898 x 2146 km, 64.8° (Epoch: 06 April)

Event Time Altitude Azimuth Distance (km) Brightness Sun altitude
Rises 13:41:21 0° 198° (SSW) 5,421 10.7 -8.9°
Reaches altitude 10° 13:44:42 10° 196° (SSW) 4,393 10.2 -9.6°
Maximum altitude 13:55:53 76° 112° (ESE) 1,968 7.9 -12.1°
Drops below altitude 10° 14:06:46 10° 29° (NNE) 4,286 9.5 -14.6°
Sets 14:09:59 0° 28° (NNE) 5,284 10.0 -15.3°
